"datetime","temp","dp","rain_mm","uv","solar","mb","wind_mph","gust_mph","windchill","rh"
"2018-06-06 00:00:00",11.3,9.2,0.0,0.0,0,1015.5,1,2,"",87
"2018-06-06 00:01:00",11.3,9.2,0.0,0.0,0,1015.5,1,2,"",87
"2018-06-06 00:02:00",11.3,9.2,0.0,0.0,0,1015.5,1,1,"",87
"2018-06-06 00:03:00",11.3,9.2,0.0,0.0,0,1015.4,1,1,"",87
"2018-06-06 00:04:00",11.2,9.1,0.0,0.0,0,1015.4,2,3,"",87
"2018-06-06 00:05:00",11.2,9.1,0.0,0.0,0,1015.4,1,2,"",87
"2018-06-06 00:06:00",11.2,9.1,0.0,0.0,0,1015.4,0,1,"",87
"2018-06-06 00:07:00",11.2,9.1,0.0,0.0,0,1015.5,0,1,"",87
"2018-06-06 00:08:00",11.1,9.0,0.0,0.0,0,1015.5,1,1,"",87
"2018-06-06 00:09:00",11.1,9.0,0.0,0.0,0,1015.4,1,2,"",87
"2018-06-06 00:10:00",11.1,9.0,0.0,0.0,0,1015.4,2,3,"",87
"2018-06-06 00:11:00",11.1,9.0,0.0,0.0,0,1015.4,1,2,"",87
"2018-06-06 00:12:00",11.0,8.9,0.0,0.0,0,1015.4,1,2,"",87
"2018-06-06 00:13:00",11.0,9.1,0.0,0.0,0,1015.4,0,0,"",88
"2018-06-06 00:14:00",10.9,9.0,0.0,0.0,0,1015.4,0,0,"",88
"2018-06-06 00:15:00",10.9,9.0,0.0,0.0,0,1015.5,1,1,"",88
"2018-06-06 00:16:00",10.8,8.9,0.0,0.0,0,1015.4,0,1,"",88
"2018-06-06 00:17:00",10.8,8.9,0.0,0.0,0,1015.4,0,1,"",88
"2018-06-06 00:18:00",10.8,8.9,0.0,0.0,0,1015.4,1,2,"",88
"2018-06-06 00:19:00",10.7,8.8,0.0,0.0,0,1015.4,0,1,"",88
"2018-06-06 00:20:00",10.7,8.8,0.0,0.0,0,1015.4,1,2,"",88
"2018-06-06 00:21:00",10.7,8.8,0.0,0.0,0,1015.4,1,2,"",88
"2018-06-06 00:22:00",10.7,8.8,0.0,0.0,0,1015.4,1,1,"",88
"2018-06-06 00:23:00",10.7,8.8,0.0,0.0,0,1015.4,1,1,"",88
"2018-06-06 00:24:00",10.7,8.8,0.0,0.0,0,1015.3,1,1,"",88
"2018-06-06 00:25:00",10.7,8.8,0.0,0.0,0,1015.3,1,1,"",88
"2018-06-06 00:26:00",10.7,8.8,0.0,0.0,0,1015.3,1,1,"",88
"2018-06-06 00:27:00",10.7,8.8,0.0,0.0,0,1015.3,1,1,"",88
"2018-06-06 00:28:00",10.7,8.8,0.0,0.0,0,1015.3,1,2,"",88
"2018-06-06 00:29:00",10.7,8.8,0.0,0.0,0,1015.3,1,1,"",88
"2018-06-06 00:30:00",10.7,8.8,0.0,0.0,0,1015.3,0,1,"",88
"2018-06-06 00:31:00",10.7,8.8,0.0,0.0,0,1015.3,1,2,"",88
"2018-06-06 00:32:00",10.6,8.7,0.0,0.0,0,1015.3,1,2,"",88
"2018-06-06 00:33:00",10.6,8.7,0.0,0.0,0,1015.3,1,1,"",88
"2018-06-06 00:34:00",10.6,8.9,0.0,0.0,0,1015.3,0,1,"",89
"2018-06-06 00:35:00",10.6,8.9,0.0,0.0,0,1015.3,0,0,"",89
"2018-06-06 00:36:00",10.5,8.8,0.0,0.0,0,1015.3,0,0,"",89
"2018-06-06 00:37:00",10.5,8.6,0.0,0.0,0,1015.3,0,0,"",88
"2018-06-06 00:38:00",10.4,8.5,0.0,0.0,0,1015.3,0,0,"",88
"2018-06-06 00:39:00",10.4,8.5,0.0,0.0,0,1015.3,0,0,"",88
"2018-06-06 00:40:00",10.4,8.7,0.0,0.0,0,1015.3,0,0,"",89
"2018-06-06 00:41:00",10.3,8.6,0.0,0.0,0,1015.3,1,2,"",89
"2018-06-06 00:42:00",10.3,8.6,0.0,0.0,0,1015.3,0,0,"",89
"2018-06-06 00:43:00",10.3,8.6,0.0,0.0,0,1015.2,0,1,"",89
"2018-06-06 00:44:00",10.3,8.6,0.0,0.0,0,1015.2,2,5,"",89
"2018-06-06 00:45:00",10.3,8.6,0.0,0.0,0,1015.2,1,2,"",89
"2018-06-06 00:46:00",10.3,8.6,0.0,0.0,0,1015.2,0,1,"",89
"2018-06-06 00:47:00",10.3,8.6,0.0,0.0,0,1015.2,0,0,"",89
"2018-06-06 00:48:00",10.3,8.6,0.0,0.0,0,1015.2,0,0,"",89
"2018-06-06 00:49:00",10.3,8.6,0.0,0.0,0,1015.2,0,0,"",89
"2018-06-06 00:50:00",10.2,8.5,0.0,0.0,0,1015.2,0,0,"",89
"2018-06-06 00:51:00",10.2,8.5,0.0,0.0,0,1015.2,0,0,"",89
"2018-06-06 00:52:00",10.2,8.5,0.0,0.0,0,1015.2,0,0,"",89
"2018-06-06 00:53:00",10.1,8.4,0.0,0.0,0,1015.2,0,0,"",89
"2018-06-06 00:54:00",10.1,8.4,0.0,0.0,0,1015.3,0,0,"",89
"2018-06-06 00:55:00",10.1,8.4,0.0,0.0,0,1015.2,0,1,"",89
"2018-06-06 00:56:00",10.1,8.4,0.0,0.0,0,1015.3,0,0,"",89
"2018-06-06 00:57:00",10.0,8.3,0.0,0.0,0,1015.2,0,0,"",89
"2018-06-06 00:58:00",9.9,8.2,0.0,0.0,0,1015.2,0,0,"",89
"2018-06-06 00:59:00",9.9,8.2,0.0,0.0,0,1015.3,0,0,"",89
"2018-06-06 01:00:00",9.8,8.1,0.0,0.0,0,1015.3,0,0,"",89
"2018-06-06 01:01:00",9.8,8.1,0.0,0.0,0,1015.2,0,0,"",89
"2018-06-06 01:02:00",9.8,8.1,0.0,0.0,0,1015.2,0,0,"",89
"2018-06-06 01:03:00",9.7,8.0,0.0,0.0,0,1015.2,0,0,"",89
"2018-06-06 01:04:00",9.7,8.1,0.0,0.0,0,1015.1,0,0,"",90
"2018-06-06 01:05:00",9.7,8.1,0.0,0.0,0,1015.1,0,1,"",90
"2018-06-06 01:06:00",9.6,8.0,0.0,0.0,0,1015.1,0,2,"",90
"2018-06-06 01:07:00",9.6,8.0,0.0,0.0,0,1015.1,1,2,"",90
"2018-06-06 01:08:00",9.6,8.0,0.0,0.0,0,1015.1,1,3,"",90
"2018-06-06 01:09:00",9.7,8.1,0.0,0.0,0,1015.1,0,0,"",90
"2018-06-06 01:10:00",9.7,8.1,0.0,0.0,0,1015.1,0,0,"",90
"2018-06-06 01:11:00",9.7,8.1,0.0,0.0,0,1015.1,0,0,"",90
"2018-06-06 01:12:00",9.6,8.0,0.0,0.0,0,1015.1,0,0,"",90
"2018-06-06 01:13:00",9.6,8.0,0.0,0.0,0,1015.1,0,0,"",90
"2018-06-06 01:14:00",9.6,8.0,0.0,0.0,0,1015.1,0,0,"",90
"2018-06-06 01:15:00",9.6,8.0,0.0,0.0,0,1015.1,0,0,"",90
"2018-06-06 01:16:00",9.6,8.0,0.0,0.0,0,1015.1,0,0,"",90
"2018-06-06 01:17:00",9.6,8.0,0.0,0.0,0,1015.0,0,0,"",90
"2018-06-06 01:18:00",9.6,8.0,0.0,0.0,0,1015.0,0,0,"",90
"2018-06-06 01:19:00",9.6,8.0,0.0,0.0,0,1015.0,0,0,"",90
"2018-06-06 01:20:00",9.6,8.0,0.0,0.0,0,1015.0,0,0,"",90
"2018-06-06 01:21:00",9.5,7.9,0.0,0.0,0,1015.0,0,0,"",90
"2018-06-06 01:22:00",9.5,7.9,0.0,0.0,0,1015.0,0,0,"",90
"2018-06-06 01:23:00",9.4,7.8,0.0,0.0,0,1015.0,0,0,"",90
"2018-06-06 01:24:00",9.4,7.8,0.0,0.0,0,1015.0,0,0,"",90
"2018-06-06 01:25:00",9.4,7.8,0.0,0.0,0,1015.0,0,0,"",90
"2018-06-06 01:26:00",9.3,7.7,0.0,0.0,0,1015.0,0,1,"",90
"2018-06-06 01:27:00",9.3,7.7,0.0,0.0,0,1015.0,0,0,"",90
"2018-06-06 01:28:00",9.3,7.7,0.0,0.0,0,1015.0,0,0,"",90
"2018-06-06 01:29:00",9.3,7.7,0.0,0.0,0,1015.0,0,0,"",90
"2018-06-06 01:30:00",9.3,7.7,0.0,0.0,0,1015.0,0,0,"",90
"2018-06-06 01:31:00",9.3,7.7,0.0,0.0,0,1015.0,0,0,"",90
"2018-06-06 01:32:00",9.2,7.6,0.0,0.0,0,1015.0,0,0,"",90
"2018-06-06 01:33:00",9.2,7.6,0.0,0.0,0,1015.0,0,0,"",90
"2018-06-06 01:34:00",9.2,7.6,0.0,0.0,0,1015.0,0,0,"",90
"2018-06-06 01:35:00",9.2,7.6,0.0,0.0,0,1015.0,0,0,"",90
"2018-06-06 01:36:00",9.1,7.5,0.0,0.0,0,1015.0,0,1,"",90
"2018-06-06 01:37:00",9.1,7.5,0.0,0.0,0,1015.0,0,1,"",90
"2018-06-06 01:38:00",9.1,7.5,0.0,0.0,0,1015.0,0,0,"",90
"2018-06-06 01:39:00",9.1,7.5,0.0,0.0,0,1015.0,0,0,"",90
"2018-06-06 01:40:00",9.1,7.7,0.0,0.0,0,1015.1,0,1,"",91
"2018-06-06 01:41:00",9.1,7.7,0.0,0.0,0,1015.1,1,2,"",91
"2018-06-06 01:42:00",9.1,7.7,0.0,0.0,0,1015.1,0,0,"",91
"2018-06-06 01:43:00",9.1,7.5,0.0,0.0,0,1015.2,0,0,"",90
"2018-06-06 01:44:00",9.1,7.7,0.0,0.0,0,1015.1,0,0,"",91
"2018-06-06 01:45:00",9.1,7.7,0.0,0.0,0,1015.2,0,0,"",91
"2018-06-06 01:46:00",9.1,7.5,0.0,0.0,0,1015.2,0,0,"",90
"2018-06-06 01:47:00",9.1,7.5,0.0,0.0,0,1015.2,0,0,"",90
"2018-06-06 01:48:00",9.1,7.5,0.0,0.0,0,1015.2,0,0,"",90
"2018-06-06 01:49:00",9.0,7.4,0.0,0.0,0,1015.2,0,0,"",90
"2018-06-06 01:50:00",9.0,7.4,0.0,0.0,0,1015.2,0,0,"",90
"2018-06-06 01:51:00",9.0,7.6,0.0,0.0,0,1015.2,0,0,"",91
"2018-06-06 01:52:00",8.9,7.5,0.0,0.0,0,1015.2,0,1,"",91
"2018-06-06 01:53:00",8.9,7.5,0.0,0.0,0,1015.1,0,0,"",91
"2018-06-06 01:54:00",8.9,7.5,0.0,0.0,0,1015.1,0,0,"",91
"2018-06-06 01:55:00",8.9,7.5,0.0,0.0,0,1015.1,0,0,"",91
"2018-06-06 01:56:00",8.9,7.5,0.0,0.0,0,1015.1,0,0,"",91
"2018-06-06 01:57:00",8.9,7.5,0.0,0.0,0,1015.1,0,0,"",91
"2018-06-06 01:58:00",8.8,7.4,0.0,0.0,0,1015.1,0,1,"",91
"2018-06-06 01:59:00",8.8,7.4,0.0,0.0,0,1015.1,0,1,"",91
"2018-06-06 02:00:00",8.8,7.4,0.0,0.0,0,1015.1,0,1,"",91
"2018-06-06 02:01:00",8.8,7.4,0.0,0.0,0,1015.1,0,0,"",91
"2018-06-06 02:02:00",8.8,7.4,0.0,0.0,0,1015.0,0,1,"",91
"2018-06-06 02:03:00",8.8,7.4,0.0,0.0,0,1015.0,0,1,"",91
"2018-06-06 02:04:00",8.7,7.3,0.0,0.0,0,1015.1,0,1,"",91
"2018-06-06 02:05:00",8.7,7.3,0.0,0.0,0,1015.0,0,0,"",91
"2018-06-06 02:06:00",8.7,7.3,0.0,0.0,0,1015.0,0,0,"",91
"2018-06-06 02:07:00",8.7,7.3,0.0,0.0,0,1015.1,0,0,"",91
"2018-06-06 02:08:00",8.7,7.3,0.0,0.0,0,1015.0,0,0,"",91
"2018-06-06 02:09:00",8.6,7.2,0.0,0.0,0,1015.0,0,0,"",91
"2018-06-06 02:10:00",8.6,7.2,0.0,0.0,0,1015.0,0,0,"",91
"2018-06-06 02:11:00",8.6,7.2,0.0,0.0,0,1015.0,0,0,"",91
"2018-06-06 02:12:00",8.6,7.2,0.0,0.0,0,1015.0,0,0,"",91
"2018-06-06 02:13:00",8.6,7.2,0.0,0.0,0,1015.0,0,1,"",91
"2018-06-06 02:14:00",8.6,7.2,0.0,0.0,0,1014.9,0,0,"",91
"2018-06-06 02:15:00",8.6,7.2,0.0,0.0,0,1014.9,0,0,"",91
"2018-06-06 02:16:00",8.6,7.2,0.0,0.0,0,1014.9,0,1,"",91
"2018-06-06 02:17:00",8.6,7.2,0.0,0.0,0,1014.9,0,1,"",91
"2018-06-06 02:18:00",8.6,7.2,0.0,0.0,0,1014.9,0,0,"",91
"2018-06-06 02:19:00",8.6,7.2,0.0,0.0,0,1014.9,0,1,"",91
"2018-06-06 02:20:00",8.6,7.2,0.0,0.0,0,1014.9,0,0,"",91
"2018-06-06 02:21:00",8.6,7.2,0.0,0.0,0,1014.9,0,0,"",91
"2018-06-06 02:22:00",8.5,7.1,0.0,0.0,0,1014.8,0,1,"",91
"2018-06-06 02:23:00",8.5,7.1,0.0,0.0,0,1014.8,0,1,"",91
"2018-06-06 02:24:00",8.5,7.1,0.0,0.0,0,1014.8,0,1,"",91
"2018-06-06 02:25:00",8.6,7.2,0.0,0.0,0,1014.8,0,1,"",91
"2018-06-06 02:26:00",8.6,7.2,0.0,0.0,0,1014.8,0,0,"",91
"2018-06-06 02:27:00",8.6,7.2,0.0,0.0,0,1014.8,0,0,"",91
"2018-06-06 02:28:00",8.5,7.1,0.0,0.0,0,1014.8,0,0,"",91
"2018-06-06 02:29:00",8.5,7.1,0.0,0.0,0,1014.8,0,0,"",91
"2018-06-06 02:30:00",8.5,7.1,0.0,0.0,0,1014.8,0,0,"",91
"2018-06-06 02:31:00",8.4,7.0,0.0,0.0,0,1014.8,0,0,"",91
"2018-06-06 02:32:00",8.4,7.0,0.0,0.0,0,1014.8,0,0,"",91
"2018-06-06 02:33:00",8.4,7.0,0.0,0.0,0,1014.8,0,1,"",91
"2018-06-06 02:34:00",8.4,7.0,0.0,0.0,0,1014.8,0,0,"",91
"2018-06-06 02:35:00",8.4,7.0,0.0,0.0,0,1014.7,0,0,"",91
"2018-06-06 02:36:00",8.4,7.0,0.0,0.0,0,1014.7,0,0,"",91
"2018-06-06 02:37:00",8.3,6.9,0.0,0.0,0,1014.7,0,0,"",91
"2018-06-06 02:38:00",8.3,6.9,0.0,0.0,0,1014.7,0,0,"",91
"2018-06-06 02:39:00",8.3,6.9,0.0,0.0,0,1014.7,0,0,"",91
"2018-06-06 02:40:00",8.3,6.9,0.0,0.0,0,1014.7,0,0,"",91
"2018-06-06 02:41:00",8.2,6.8,0.0,0.0,0,1014.7,0,0,"",91
"2018-06-06 02:42:00",8.2,6.8,0.0,0.0,0,1014.7,0,0,"",91
"2018-06-06 02:43:00",8.2,6.8,0.0,0.0,0,1014.6,0,0,"",91
"2018-06-06 02:44:00",8.2,6.8,0.0,0.0,0,1014.6,0,0,"",91
"2018-06-06 02:45:00",8.2,6.8,0.0,0.0,0,1014.7,0,0,"",91
"2018-06-06 02:46:00",8.2,6.8,0.0,0.0,0,1014.6,0,0,"",91
"2018-06-06 02:47:00",8.3,6.9,0.0,0.0,0,1014.7,0,0,"",91
"2018-06-06 02:48:00",8.2,6.8,0.0,0.0,0,1014.6,0,0,"",91
"2018-06-06 02:49:00",8.2,6.8,0.0,0.0,0,1014.6,0,1,"",91
"2018-06-06 02:50:00",8.2,6.8,0.0,0.0,0,1014.6,0,1,"",91
"2018-06-06 02:51:00",8.2,6.8,0.0,0.0,0,1014.6,0,1,"",91
"2018-06-06 02:52:00",8.3,6.9,0.0,0.0,0,1014.6,0,1,"",91
"2018-06-06 02:53:00",8.2,6.8,0.0,0.0,0,1014.6,0,1,"",91
"2018-06-06 02:54:00",8.2,6.8,0.0,0.0,0,1014.6,1,1,"",91
"2018-06-06 02:55:00",8.2,6.8,0.0,0.0,0,1014.7,0,1,"",91
"2018-06-06 02:56:00",8.2,6.8,0.0,0.0,0,1014.6,0,0,"",91
"2018-06-06 02:57:00",8.2,6.8,0.0,0.0,0,1014.6,0,0,"",91
"2018-06-06 02:58:00",8.2,6.8,0.0,0.0,0,1014.6,0,1,"",91
"2018-06-06 02:59:00",8.2,6.8,0.0,0.0,0,1014.6,0,0,"",91
"2018-06-06 03:00:00",8.2,6.8,0.0,0.0,0,1014.6,0,0,"",91
"2018-06-06 03:01:00",8.2,6.8,0.0,0.0,0,1014.5,0,0,"",91
"2018-06-06 03:02:00",8.2,6.8,0.0,0.0,0,1014.5,0,0,"",91
"2018-06-06 03:03:00",8.2,6.8,0.0,0.0,0,1014.5,0,0,"",91
"2018-06-06 03:04:00",8.1,6.7,0.0,0.0,0,1014.5,0,0,"",91
"2018-06-06 03:05:00",8.1,6.7,0.0,0.0,0,1014.6,0,0,"",91
"2018-06-06 03:06:00",8.1,6.7,0.0,0.0,0,1014.6,0,0,"",91
"2018-06-06 03:07:00",8.1,6.7,0.0,0.0,0,1014.6,0,0,"",91
"2018-06-06 03:08:00",8.2,6.8,0.0,0.0,0,1014.5,0,0,"",91
"2018-06-06 03:09:00",8.2,6.8,0.0,0.0,0,1014.6,0,0,"",91
"2018-06-06 03:10:00",8.1,6.7,0.0,0.0,0,1014.6,0,0,"",91
"2018-06-06 03:11:00",8.2,6.8,0.0,0.0,0,1014.6,0,0,"",91
"2018-06-06 03:12:00",8.1,6.7,0.0,0.0,0,1014.6,0,0,"",91
"2018-06-06 03:13:00",8.1,6.7,0.0,0.0,0,1014.6,0,0,"",91
"2018-06-06 03:14:00",8.1,6.7,0.0,0.0,0,1014.7,0,0,"",91
"2018-06-06 03:15:00",8.1,6.7,0.0,0.0,0,1014.6,0,1,"",91
"2018-06-06 03:16:00",8.1,6.7,0.0,0.0,0,1014.6,0,0,"",91
"2018-06-06 03:17:00",8.1,6.7,0.0,0.0,0,1014.6,0,0,"",91
"2018-06-06 03:18:00",8.1,6.7,0.0,0.0,0,1014.6,0,0,"",91
"2018-06-06 03:19:00",8.0,6.6,0.0,0.0,0,1014.6,0,0,"",91
"2018-06-06 03:20:00",8.0,6.6,0.0,0.0,0,1014.7,0,0,"",91
"2018-06-06 03:21:00",7.9,6.5,0.0,0.0,0,1014.7,0,1,"",91
"2018-06-06 03:22:00",7.9,6.5,0.0,0.0,0,1014.7,0,1,"",91
"2018-06-06 03:23:00",8.0,6.6,0.0,0.0,0,1014.7,0,0,"",91
"2018-06-06 03:24:00",7.9,6.5,0.0,0.0,0,1014.8,0,0,"",91
"2018-06-06 03:25:00",7.9,6.5,0.0,0.0,0,1014.8,0,0,"",91
"2018-06-06 03:26:00",7.9,6.5,0.0,0.0,0,1014.8,0,1,"",91
"2018-06-06 03:27:00",7.9,6.5,0.0,0.0,0,1014.8,0,1,"",91
"2018-06-06 03:28:00",7.9,6.5,0.0,0.0,0,1014.8,0,0,"",91
"2018-06-06 03:29:00",7.9,6.5,0.0,0.0,0,1014.8,0,0,"",91
"2018-06-06 03:30:00",7.9,6.5,0.0,0.0,0,1014.8,0,0,"",91
"2018-06-06 03:31:00",7.9,6.5,0.0,0.0,0,1014.8,0,0,"",91
"2018-06-06 03:32:00",7.9,6.5,0.0,0.0,0,1014.8,0,0,"",91
"2018-06-06 03:33:00",7.9,6.5,0.0,0.0,0,1014.8,0,0,"",91
"2018-06-06 03:34:00",7.9,6.5,0.0,0.0,0,1014.8,0,0,"",91
"2018-06-06 03:35:00",7.9,6.5,0.0,0.0,0,1014.8,0,0,"",91
"2018-06-06 03:36:00",7.9,6.5,0.0,0.0,0,1014.8,0,0,"",91
"2018-06-06 03:37:00",7.9,6.5,0.0,0.0,0,1014.8,0,0,"",91
"2018-06-06 03:38:00",7.9,6.5,0.0,0.0,0,1014.8,0,0,"",91
"2018-06-06 03:39:00",7.9,6.5,0.0,0.0,0,1014.8,0,1,"",91
"2018-06-06 03:40:00",7.9,6.5,0.0,0.0,0,1014.8,2,3,"",91
"2018-06-06 03:41:00",7.9,6.5,0.0,0.0,0,1014.8,0,1,"",91
"2018-06-06 03:42:00",7.9,6.5,0.0,0.0,0,1014.8,0,0,"",91
"2018-06-06 03:43:00",7.9,6.5,0.0,0.0,0,1014.8,0,0,"",91
"2018-06-06 03:44:00",7.9,6.5,0.0,0.0,0,1014.8,0,0,"",91
"2018-06-06 03:45:00",7.9,6.5,0.0,0.0,0,1014.8,0,0,"",91
"2018-06-06 03:46:00",7.9,6.5,0.0,0.0,0,1014.8,0,0,"",91
"2018-06-06 03:47:00",7.9,6.5,0.0,0.0,0,1014.8,0,0,"",91
"2018-06-06 03:48:00",7.9,6.5,0.0,0.0,0,1014.7,0,0,"",91
"2018-06-06 03:49:00",7.9,6.5,0.0,0.0,0,1014.7,0,0,"",91
"2018-06-06 03:50:00",7.9,6.5,0.0,0.0,0,1014.7,0,0,"",91
"2018-06-06 03:51:00",7.9,6.7,0.0,0.0,0,1014.8,0,0,"",92
"2018-06-06 03:52:00",7.9,6.7,0.0,0.0,0,1014.7,0,0,"",92
"2018-06-06 03:53:00",7.8,6.6,0.0,0.0,0,1014.7,0,0,"",92
"2018-06-06 03:54:00",7.8,6.4,0.0,0.0,0,1014.7,0,0,"",91
"2018-06-06 03:55:00",7.8,6.4,0.0,0.0,0,1014.8,0,0,"",91
"2018-06-06 03:56:00",7.8,6.4,0.0,0.0,0,1014.7,0,0,"",91
"2018-06-06 03:57:00",7.8,6.4,0.0,0.0,0,1014.7,0,0,"",91
"2018-06-06 03:58:00",7.8,6.4,0.0,0.0,0,1014.7,0,0,"",91
"2018-06-06 03:59:00",7.8,6.4,0.0,0.0,0,1014.7,0,0,"",91
"2018-06-06 04:00:00",7.7,6.3,0.0,0.0,0,1014.7,0,0,"",91
"2018-06-06 04:01:00",7.7,6.3,0.0,0.0,0,1014.7,0,0,"",91
"2018-06-06 04:02:00",7.7,6.3,0.0,0.0,0,1014.7,0,0,"",91
"2018-06-06 04:03:00",7.6,6.2,0.0,0.0,0,1014.7,0,0,"",91
"2018-06-06 04:04:00",7.7,6.3,0.0,0.0,0,1014.7,0,0,"",91
"2018-06-06 04:05:00",7.7,6.3,0.0,0.0,0,1014.7,0,0,"",91
"2018-06-06 04:06:00",7.7,6.3,0.0,0.0,0,1014.8,0,0,"",91
"2018-06-06 04:07:00",7.7,6.3,0.0,0.0,0,1014.7,0,0,"",91
"2018-06-06 04:08:00",7.7,6.3,0.0,0.0,0,1014.7,0,0,"",91
"2018-06-06 04:09:00",7.7,6.3,0.0,0.0,0,1014.7,0,0,"",91
"2018-06-06 04:10:00",7.7,6.3,0.0,0.0,0,1014.7,0,0,"",91
"2018-06-06 04:11:00",7.7,6.5,0.0,0.0,0,1014.7,0,0,"",92
"2018-06-06 04:12:00",7.7,6.5,0.0,0.0,0,1014.7,0,0,"",92
"2018-06-06 04:13:00",7.7,6.5,0.0,0.0,0,1014.7,0,0,"",92
"2018-06-06 04:14:00",7.7,6.5,0.0,0.0,0,1014.7,0,0,"",92
"2018-06-06 04:15:00",7.7,6.5,0.0,0.0,0,1014.7,0,0,"",92
"2018-06-06 04:16:00",7.7,6.5,0.0,0.0,0,1014.8,0,0,"",92
"2018-06-06 04:17:00",7.7,6.5,0.0,0.0,0,1014.7,0,0,"",92
"2018-06-06 04:18:00",7.7,6.5,0.0,0.0,0,1014.8,0,0,"",92
"2018-06-06 04:19:00",7.6,6.4,0.0,0.0,0,1014.8,0,0,"",92
"2018-06-06 04:20:00",7.6,6.4,0.0,0.0,0,1014.8,0,0,"",92
"2018-06-06 04:21:00",7.6,6.4,0.0,0.0,0,1014.8,0,0,"",92
"2018-06-06 04:22:00",7.6,6.4,0.0,0.0,0,1014.9,0,0,"",92
"2018-06-06 04:23:00",7.6,6.4,0.0,0.0,0,1014.9,0,0,"",92
"2018-06-06 04:24:00",7.6,6.4,0.0,0.0,0,1014.9,0,0,"",92
"2018-06-06 04:25:00",7.6,6.4,0.0,0.0,0,1014.9,0,0,"",92
"2018-06-06 04:26:00",7.6,6.4,0.0,0.0,0,1014.9,0,0,"",92
"2018-06-06 04:27:00",7.6,6.4,0.0,0.0,0,1014.9,0,0,"",92
"2018-06-06 04:28:00",7.6,6.4,0.0,0.0,0,1015.0,0,0,"",92
"2018-06-06 04:29:00",7.6,6.4,0.0,0.0,0,1015.0,0,0,"",92
"2018-06-06 04:30:00",7.5,6.3,0.0,0.0,0,1015.0,0,1,"",92
"2018-06-06 04:31:00",7.5,6.3,0.0,0.0,0,1015.0,1,2,"",92
"2018-06-06 04:32:00",7.5,6.3,0.0,0.0,0,1015.1,0,0,"",92
"2018-06-06 04:33:00",7.5,6.1,0.0,0.0,0,1015.0,0,1,"",91
"2018-06-06 04:34:00",7.6,6.2,0.0,0.0,0,1015.0,0,1,"",91
"2018-06-06 04:35:00",7.6,6.4,0.0,0.0,0,1015.0,1,1,"",92
"2018-06-06 04:36:00",7.6,6.4,0.0,0.0,0,1014.9,0,1,"",92
"2018-06-06 04:37:00",7.6,6.4,0.0,0.0,0,1014.9,0,1,"",92
"2018-06-06 04:38:00",7.6,6.4,0.0,0.0,0,1014.9,1,2,"",92
"2018-06-06 04:39:00",7.6,6.4,0.0,0.0,0,1014.9,0,1,"",92
"2018-06-06 04:40:00",7.6,6.4,0.0,0.0,0,1014.9,0,1,"",92
"2018-06-06 04:41:00",7.6,6.4,0.0,0.0,0,1014.9,0,0,"",92
"2018-06-06 04:42:00",7.6,6.2,0.0,0.0,0,1014.9,0,1,"",91
"2018-06-06 04:43:00",7.6,6.2,0.0,0.0,0,1014.9,0,0,"",91
"2018-06-06 04:44:00",7.6,6.2,0.0,0.0,0,1014.9,0,1,"",91
"2018-06-06 04:45:00",7.6,6.4,0.0,0.0,0,1014.9,0,1,"",92
"2018-06-06 04:46:00",7.6,6.4,0.0,0.0,0,1014.9,1,2,"",92
"2018-06-06 04:47:00",7.6,6.4,0.0,0.0,0,1014.9,0,0,"",92
"2018-06-06 04:48:00",7.6,6.4,0.0,0.0,0,1014.9,0,1,"",92
"2018-06-06 04:49:00",7.6,6.4,0.0,0.0,0,1014.9,1,2,"",92
"2018-06-06 04:50:00",7.6,6.4,0.0,0.0,0,1014.9,0,1,"",92
"2018-06-06 04:51:00",7.6,6.4,0.0,0.0,0,1014.9,0,1,"",92
"2018-06-06 04:52:00",7.7,6.5,0.0,0.0,0,1014.9,0,1,"",92
"2018-06-06 04:53:00",7.7,6.5,0.0,0.0,5,1014.9,0,0,"",92
"2018-06-06 04:54:00",7.7,6.5,0.0,0.0,5,1014.9,0,0,"",92
"2018-06-06 04:55:00",7.7,6.5,0.0,0.0,5,1014.9,0,1,"",92
"2018-06-06 04:56:00",7.7,6.5,0.0,0.0,5,1014.9,0,1,"",92
"2018-06-06 04:57:00",7.7,6.5,0.0,0.0,5,1014.9,0,0,"",92
"2018-06-06 04:58:00",7.7,6.5,0.0,0.0,5,1014.9,0,0,"",92
"2018-06-06 04:59:00",7.7,6.5,0.0,0.0,5,1015.0,0,0,"",92
"2018-06-06 05:00:00",7.7,6.5,0.0,0.0,7,1014.9,2,5,6.3,92
"2018-06-06 05:01:00",7.7,6.5,0.0,0.0,7,1015.0,1,2,"",92
"2018-06-06 05:02:00",7.8,6.6,0.0,0.0,7,1015.0,0,0,"",92
"2018-06-06 05:03:00",7.8,6.6,0.0,0.0,7,1015.0,0,0,"",92
"2018-06-06 05:04:00",7.8,6.6,0.0,0.0,9,1015.0,0,0,"",92
"2018-06-06 05:05:00",7.8,6.6,0.0,0.0,9,1015.0,0,1,"",92
"2018-06-06 05:06:00",7.8,6.6,0.0,0.0,11,1015.0,0,0,"",92
"2018-06-06 05:07:00",7.8,6.6,0.0,0.0,11,1015.0,0,0,"",92
"2018-06-06 05:08:00",7.8,6.6,0.0,0.0,11,1015.0,0,0,"",92
"2018-06-06 05:09:00",7.8,6.6,0.0,0.0,11,1014.9,1,3,"",92
"2018-06-06 05:10:00",7.8,6.6,0.0,0.0,12,1015.0,1,1,"",92
"2018-06-06 05:11:00",7.8,6.6,0.0,0.0,12,1014.9,0,0,"",92
"2018-06-06 05:12:00",7.8,6.6,0.0,0.0,12,1014.9,0,1,"",92
"2018-06-06 05:13:00",7.8,6.6,0.0,0.0,12,1014.9,0,1,"",92
"2018-06-06 05:14:00",7.8,6.6,0.0,0.0,14,1014.9,0,1,"",92
"2018-06-06 05:15:00",7.8,6.6,0.0,0.0,14,1014.9,0,1,"",92
"2018-06-06 05:16:00",7.8,6.6,0.0,0.0,16,1014.8,0,1,"",92
"2018-06-06 05:17:00",7.8,6.6,0.0,0.0,16,1014.8,1,1,"",92
"2018-06-06 05:18:00",7.8,6.6,0.0,0.0,18,1014.8,0,1,"",92
"2018-06-06 05:19:00",7.8,6.6,0.0,0.0,18,1014.8,0,1,"",92
"2018-06-06 05:20:00",7.8,6.6,0.0,0.0,19,1014.8,0,1,"",92
"2018-06-06 05:21:00",7.8,6.6,0.0,0.0,19,1014.8,0,1,"",92
"2018-06-06 05:22:00",7.8,6.6,0.0,0.0,19,1014.7,0,0,"",92
"2018-06-06 05:23:00",7.9,6.7,0.0,0.0,21,1014.8,0,1,"",92
"2018-06-06 05:24:00",7.9,6.7,0.0,0.0,21,1014.8,0,2,"",92
"2018-06-06 05:25:00",7.9,6.7,0.0,0.0,21,1014.8,0,1,"",92
"2018-06-06 05:26:00",7.9,6.7,0.0,0.0,21,1014.8,1,2,"",92
"2018-06-06 05:27:00",7.9,6.7,0.0,0.0,21,1014.8,0,0,"",92
"2018-06-06 05:28:00",8.0,6.8,0.0,0.0,21,1014.8,0,0,"",92
"2018-06-06 05:29:00",8.1,6.9,0.0,0.0,23,1014.8,1,3,"",92
"2018-06-06 05:30:00",8.1,6.9,0.0,0.0,25,1014.8,1,1,"",92
"2018-06-06 05:31:00",8.1,6.9,0.0,0.0,26,1014.8,2,3,"",92
"2018-06-06 05:32:00",8.2,7.0,0.0,0.0,28,1014.7,1,2,"",92
"2018-06-06 05:33:00",8.2,7.0,0.0,0.0,30,1014.7,1,1,"",92
"2018-06-06 05:34:00",8.2,7.0,0.0,0.0,26,1014.7,0,0,"",92
"2018-06-06 05:35:00",8.2,7.0,0.0,0.0,26,1014.7,0,1,"",92
"2018-06-06 05:36:00",8.2,7.0,0.0,0.0,30,1014.7,0,1,"",92
"2018-06-06 05:37:00",8.2,7.0,0.0,0.0,32,1014.7,2,3,"",92
"2018-06-06 05:38:00",8.3,7.1,0.0,0.0,33,1014.7,1,2,"",92
"2018-06-06 05:39:00",8.3,7.1,0.0,0.0,32,1014.7,1,2,"",92
"2018-06-06 05:40:00",8.3,7.1,0.0,0.0,33,1014.6,2,5,7.0,92
"2018-06-06 05:41:00",8.3,7.1,0.0,0.0,33,1014.6,1,1,"",92
"2018-06-06 05:42:00",8.4,7.2,0.0,0.0,35,1014.6,1,2,"",92
"2018-06-06 05:43:00",8.4,7.2,0.0,0.0,37,1014.7,2,4,7.5,92
"2018-06-06 05:44:00",8.4,7.2,0.0,0.0,40,1014.7,1,2,"",92
"2018-06-06 05:45:00",8.4,7.2,0.0,0.0,39,1014.7,0,1,"",92
"2018-06-06 05:46:00",8.4,7.2,0.0,0.0,39,1014.7,1,4,7.5,92
"2018-06-06 05:47:00",8.4,7.2,0.0,0.0,40,1014.6,5,9,6.0,92
"2018-06-06 05:48:00",8.4,7.2,0.0,0.0,42,1014.6,2,5,7.1,92
"2018-06-06 05:49:00",8.4,7.2,0.0,0.0,42,1014.6,1,2,"",92
"2018-06-06 05:50:00",8.5,7.3,0.0,0.0,42,1014.6,1,3,"",92
"2018-06-06 05:51:00",8.6,7.4,0.0,0.0,42,1014.6,1,2,"",92
"2018-06-06 05:52:00",8.6,7.4,0.0,0.0,44,1014.6,1,3,"",92
"2018-06-06 05:53:00",8.6,7.4,0.0,0.0,46,1014.6,3,5,7.4,92
"2018-06-06 05:54:00",8.6,7.2,0.0,0.0,42,1014.7,2,4,7.7,91
"2018-06-06 05:55:00",8.6,7.4,0.0,0.0,46,1014.7,1,2,"",92
"2018-06-06 05:56:00",8.7,7.5,0.0,0.0,44,1014.7,1,2,"",92
"2018-06-06 05:57:00",8.7,7.5,0.0,0.0,42,1014.6,2,2,"",92
"2018-06-06 05:58:00",8.7,7.5,0.0,0.0,42,1014.6,1,2,"",92
"2018-06-06 05:59:00",8.7,7.5,0.0,0.0,40,1014.7,3,6,7.1,92
"2018-06-06 06:00:00",8.7,7.5,0.0,0.0,39,1014.6,2,3,"",92
"2018-06-06 06:01:00",8.8,7.4,0.0,0.0,39,1014.6,4,6,7.3,91
"2018-06-06 06:02:00",8.8,7.4,0.0,0.0,42,1014.7,2,5,7.6,91
"2018-06-06 06:03:00",8.8,7.4,0.0,0.0,40,1014.7,0,1,"",91
"2018-06-06 06:04:00",8.8,7.4,0.0,0.0,42,1014.6,2,4,8.0,91
"2018-06-06 06:05:00",8.8,7.4,0.0,0.0,44,1014.7,1,3,"",91
"2018-06-06 06:06:00",8.8,7.4,0.0,0.0,53,1014.7,1,2,"",91
"2018-06-06 06:07:00",8.8,7.4,0.0,0.0,53,1014.7,1,2,"",91
"2018-06-06 06:08:00",8.8,7.4,0.0,0.0,47,1014.7,2,6,7.3,91
"2018-06-06 06:09:00",8.8,7.4,0.0,0.0,47,1014.7,1,2,"",91
"2018-06-06 06:10:00",8.9,7.5,0.0,0.0,51,1014.7,0,2,"",91
"2018-06-06 06:11:00",8.9,7.5,0.0,0.0,54,1014.8,3,9,6.6,91
"2018-06-06 06:12:00",8.9,7.5,0.0,0.0,49,1014.8,1,2,"",91
"2018-06-06 06:13:00",8.9,7.5,0.0,0.0,49,1014.8,1,6,7.4,91
"2018-06-06 06:14:00",8.9,7.5,0.0,0.0,46,1014.8,2,4,8.1,91
"2018-06-06 06:15:00",9.0,7.6,0.0,0.0,49,1014.8,1,2,"",91
"2018-06-06 06:16:00",9.0,7.6,0.0,0.0,46,1014.9,0,1,"",91
"2018-06-06 06:17:00",9.1,7.7,0.0,0.0,42,1014.9,1,4,8.2,91
"2018-06-06 06:18:00",9.1,7.7,0.0,0.0,44,1014.9,2,4,8.3,91
"2018-06-06 06:19:00",9.1,7.7,0.0,0.0,40,1014.9,1,2,"",91
"2018-06-06 06:20:00",9.1,7.7,0.0,0.0,40,1014.9,1,3,"",91
"2018-06-06 06:21:00",9.1,7.7,0.0,0.0,47,1014.9,1,2,"",91
"2018-06-06 06:22:00",9.1,7.7,0.0,0.0,44,1014.9,2,3,"",91
"2018-06-06 06:23:00",9.1,7.7,0.0,0.0,40,1014.9,1,2,"",91
"2018-06-06 06:24:00",9.1,7.7,0.0,0.0,42,1014.9,1,2,"",91
"2018-06-06 06:25:00",9.1,7.7,0.0,0.0,54,1014.9,1,3,"",91
"2018-06-06 06:26:00",9.1,7.7,0.0,0.0,49,1015.0,2,4,8.3,91
"2018-06-06 06:27:00",9.1,7.7,0.0,0.0,42,1014.9,2,3,"",91
"2018-06-06 06:28:00",9.1,7.7,0.0,0.0,47,1014.9,1,1,"",91
"2018-06-06 06:29:00",9.1,7.7,0.0,0.0,44,1015.0,1,4,8.3,91
"2018-06-06 06:30:00",9.1,7.7,0.0,0.0,44,1015.0,2,4,8.3,91
"2018-06-06 06:31:00",9.1,7.7,0.0,0.0,44,1015.0,3,5,7.9,91
"2018-06-06 06:32:00",9.2,7.8,0.0,0.0,53,1015.0,2,4,8.4,91
"2018-06-06 06:33:00",9.2,7.8,0.0,0.0,44,1015.0,1,3,"",91
"2018-06-06 06:34:00",9.2,7.8,0.0,0.0,42,1015.0,2,3,"",91
"2018-06-06 06:35:00",9.2,7.8,0.0,0.0,46,1015.0,3,6,7.7,91
"2018-06-06 06:36:00",9.2,7.8,0.0,0.0,44,1015.0,2,5,8.1,91
"2018-06-06 06:37:00",9.3,7.9,0.0,0.0,47,1015.0,2,4,8.4,91
"2018-06-06 06:38:00",9.3,7.9,0.0,0.0,49,1015.0,3,7,7.6,91
"2018-06-06 06:39:00",9.3,7.7,0.0,0.0,47,1015.0,3,5,8.2,90
"2018-06-06 06:40:00",9.3,7.7,0.0,0.0,49,1015.0,2,7,7.6,90
"2018-06-06 06:41:00",9.3,7.7,0.0,0.0,53,1015.0,3,6,7.9,90
"2018-06-06 06:42:00",9.3,7.7,0.0,0.0,54,1015.1,2,3,"",90
"2018-06-06 06:43:00",9.3,7.7,0.0,0.0,54,1015.1,1,2,"",90
"2018-06-06 06:44:00",9.3,7.7,0.0,0.0,53,1015.1,2,2,"",90
"2018-06-06 06:45:00",9.3,7.7,0.0,0.0,54,1015.1,1,4,8.6,90
"2018-06-06 06:46:00",9.3,7.7,0.0,0.0,58,1015.2,2,3,"",90
"2018-06-06 06:47:00",9.3,7.7,0.0,0.0,54,1015.2,1,2,"",90
"2018-06-06 06:48:00",9.3,7.7,0.0,0.0,54,1015.2,1,3,"",90
"2018-06-06 06:49:00",9.3,7.7,0.0,0.0,56,1015.2,1,2,"",90
"2018-06-06 06:50:00",9.3,7.7,0.0,0.0,54,1015.2,1,4,8.6,90
"2018-06-06 06:51:00",9.3,7.7,0.0,0.0,58,1015.3,3,5,8.2,90
"2018-06-06 06:52:00",9.3,7.7,0.0,0.0,56,1015.2,1,3,"",90
"2018-06-06 06:53:00",9.3,7.7,0.0,0.0,54,1015.2,2,4,8.6,90
"2018-06-06 06:54:00",9.3,7.7,0.0,0.0,58,1015.2,3,9,7.1,90